GW7204 Weather Reports


Display with metric or nautical units.
time (UTC)temp
F
wind
direction
speed
MPH
gust
MPH
rain 1hr
in
rain 24hr
in
rain mn
in
humidity
%
barometer
mb
20260505041526 59 122 0.0 0.0 0.00 0.00 0.00 83 1007.4
20260505040919 58 127 0.0 0.0 0.00 0.00 0.00 86 1007.4
20260505035138 58 106 0.0 0.0 0.00 0.00 0.00 89 1007.4
20260505034556 58 101 0.0 0.0 0.00 0.00 0.00 88 1007.4
20260505033913 58 134 0.0 0.0 0.00 0.00 0.00 88 1007.4
20260505033320 58 85 0.0 0.0 0.00 0.00 0.00 88 1007.4
20260505032719 58 107 0.0 0.0 0.00 0.00 0.00 89 1007.4
20260505032128 58 120 0.0 0.0 0.00 0.00 0.00 89 1007.4
20260505031514 58 121 0.0 0.0 0.00 0.00 0.00 89 1007.4
20260505030941 58 128 0.0 0.0 0.00 0.00 0.00 88 1007.4
20260505030344 58 108 0.0 0.0 0.00 0.00 0.00 88 1007.4
20260505025743 58 113 0.0 0.0 0.00 0.00 0.00 88 1007.4
20260505025129 58 132 0.0 0.0 0.00 0.00 0.00 88 1007.4
20260505024538 58 77 0.0 0.0 0.00 0.00 0.00 88 1007.4
20260505022123 58 133 0.0 0.0 0.00 0.00 0.00 87 1007.1
20260505021512 59 121 0.0 0.0 0.00 0.00 0.00 87 1007.1
20260505020926 59 127 0.0 0.0 0.00 0.00 0.00 86 1007.1
20260505020317 60 103 0.0 1.0 0.00 0.00 0.00 85 1007.1
20260505015154 60 104 0.0 0.0 0.00 0.00 0.00 83 1007.1
20260505014530 61 116 0.0 0.0 0.00 0.00 0.00 82 1007.1
20260505013918 61 114 0.0 0.0 0.00 0.00 0.00 80 1007.1
20260505013318 62 76 0.0 0.0 0.00 0.00 0.00 78 1007.1
20260505012711 62 104 0.0 0.0 0.00 0.00 0.00 76 1006.7
20260505012147 63 126 0.0 0.0 0.00 0.00 0.00 75 1006.7
20260505011536 64 112 0.0 0.0 0.00 0.00 0.00 73 1006.7
20260505010914 64 122 0.0 0.0 0.00 0.00 0.00 72 1006.7
20260505010331 65 111 0.0 0.0 0.00 0.00 0.00 71 1006.7
20260505005751 66 121 0.0 0.0 0.00 0.00 0.00 69 1006.7
20260505005121 66 118 0.0 0.0 0.00 0.00 0.00 68 1006.7
20260505004534 67 108 0.0 0.0 0.00 0.00 0.00 66 1006.7
20260505003929 67 105 0.0 0.0 0.00 0.00 0.00 65 1006.7
20260505003354 67 107 0.0 0.0 0.00 0.00 0.00 65 1006.7
20260505002111 69 83 0.0 0.0 0.00 0.00 0.00 62 1006.7
20260505001513 70 68 0.0 0.0 0.00 0.00 0.00 60 1006.7
20260505000916 71 99 0.0 0.0 0.00 0.00 0.00 58 1006.7
20260505000318 71 74 0.0 0.0 0.00 0.00 0.00 57 1006.7
20260504235715 71 93 0.0 0.0 0.00 0.00 0.00 57 1006.7
20260504234528 73 76 0.0 0.0 0.00 0.00 0.00 54 1006.7
20260504233933 73 109 0.0 0.0 0.00 0.00 0.00 53 1006.7
20260504233341 74 102 1.0 1.0 0.00 0.00 0.00 52 1007.1
20260504232715 74 58 1.0 1.0 0.00 0.00 0.00 54 1007.1
20260504232153 74 58 1.0 1.0 0.00 0.00 0.00 53 1006.7
20260504231519 75 1 4.0 4.0 0.00 0.00 0.00 51 1007.1
20260504230952 76 50 1.0 2.0 0.00 0.00 0.00 51 1007.1
20260504225714 74 105 0.0 1.0 0.00 0.00 0.00 51 1007.1
20260504225147 75 36 0.0 1.0 0.00 0.00 0.00 52 1007.1
20260504224511 76 6 2.0 2.0 0.00 0.00 0.00 48 1007.4
20260504223935 76 32 1.0 1.0 0.00 0.00 0.00 47 1007.4
20260504223316 75 230 2.0 2.0 0.00 0.00 0.00 50 1007.4
20260504222753 75 170 0.0 1.0 0.00 0.00 0.00 51 1007.1
20260504222112 74 146 2.0 3.0 0.00 0.00 0.00 49 1007.7
20260504221522 73 173 0.0 1.0 0.00 0.00 0.00 52 1007.4
20260504220927 73 138 0.0 0.0 0.00 0.00 0.00 51 1007.4
20260504220316 73 142 1.0 1.0 0.00 0.00 0.00 52 1007.7
20260504215123 73 198 0.0 1.0 0.00 0.00 0.00 52 1007.7
20260504214552 73 197 1.0 1.0 0.00 0.00 0.00 51 1007.7
20260504213951 74 180 2.0 3.0 0.00 0.00 0.00 51 1007.7
20260504211527 72 351 6.0 8.0 0.00 0.00 0.00 50 1008.1
20260504210950 71 130 4.0 6.0 0.00 0.00 0.00 53 1008.1
20260504210330 71 131 0.0 1.0 0.00 0.00 0.00 52 1008.1
20260504205734 70 160 2.0 2.0 0.00 0.00 0.00 52 1008.4
20260504205140 71 109 0.0 1.0 0.00 0.00 0.00 52 1008.4
20260504204542 70 43 2.0 3.0 0.00 0.00 0.00 52 1008.4
20260504203931 70 225 2.0 2.0 0.00 0.00 0.00 51 1008.8
20260504202734 70 232 2.0 3.0 0.00 0.00 0.00 53 1008.8
20260504202114 71 357 4.0 8.0 0.00 0.00 0.00 51 1008.8
20260504201541 71 310 3.0 7.0 0.00 0.00 0.00 51 1008.8
20260504200320 71 69 1.0 1.0 0.00 0.00 0.00 53 1008.4
20260504195752 71 171 1.0 1.0 0.00 0.00 0.00 54 1008.4
20260504195124 71 19 1.0 1.0 0.00 0.00 0.00 55 1008.4
20260504194552 72 114 3.0 4.0 0.00 0.00 0.00 53 1008.4
20260504193936 72 197 3.0 4.0 0.00 0.00 0.00 52 1008.4
20260504193337 71 145 5.0 6.0 0.00 0.00 0.00 52 1008.4
20260504192722 72 241 1.0 1.0 0.00 0.00 0.00 51 1008.4
20260504192139 71 192 9.0 11.0 0.00 0.00 0.00 52 1008.4
20260504191533 72 118 1.0 1.0 0.00 0.00 0.00 51 1008.4
20260504190949 71 211 1.0 2.0 0.00 0.00 0.00 52 1008.1
20260504185733 74 333 1.0 2.0 0.00 0.00 0.00 47 1008.1
20260504184535 74 134 2.0 3.0 0.00 0.00 0.00 49 1008.4
20260504183943 73 154 0.0 1.0 0.00 0.00 0.00 50 1008.1
20260504183329 73 303 3.0 4.0 0.00 0.00 0.00 50 1008.4
20260504182741 73 154 1.0 2.0 0.00 0.00 0.00 49 1008.4
20260504182142 71 97 1.0 2.0 0.00 0.00 0.00 51 1008.4
20260504181512 72 263 3.0 4.0 0.00 0.00 0.00 52 1008.4
20260504180923 71 243 2.0 3.0 0.00 0.00 0.00 54 1008.8
20260504180320 70 30 2.0 3.0 0.00 0.00 0.00 54 1008.8
20260504175748 70 247 2.0 2.0 0.00 0.00 0.00 55 1008.8
20260504174534 69 172 5.0 7.0 0.00 0.00 0.00 53 1008.8
20260504173931 69 25 2.0 2.0 0.00 0.00 0.00 54 1008.8
20260504172713 70 163 2.0 3.0 0.00 0.00 0.00 51 1008.8
20260504172134 71 145 0.0 0.0 0.00 0.00 0.00 51 1008.8
20260504171554 70 150 1.0 1.0 0.00 0.00 0.00 50 1009.1
20260504170919 69 321 5.0 6.0 0.00 0.00 0.00 52 1008.8
20260504170335 70 205 4.0 4.0 0.00 0.00 0.00 51 1008.8
20260504160347 67 133 2.0 2.0 0.00 0.00 0.00 54 1009.4
20260504141236 59 115 1.0 1.0 0.00 0.00 0.00 65 1010.4
20260504140653 58 130 1.0 2.0 0.00 0.00 0.00 64 1010.4
20260504130633 55 183 3.0 4.0 0.00 0.00 0.00 65 1010.8
20260504110627 39 84 0.0 0.0 0.00 0.00 0.00 99 1010.1
20260504081814 44 110 0.0 0.0 0.00 0.00 0.00 91 1011.1
20260504081216 44 119 0.0 0.0 0.00 0.00 0.00 91 1011.1
20260504080626 44 122 0.0 0.0 0.00 0.00 0.00 91 1011.5
20260504045417 49 106 0.0 0.0 0.00 0.00 0.00 78 1013.2
20260504044831 48 111 0.0 0.0 0.00 0.00 0.00 81 1013.2
20260504044221 48 108 0.0 0.0 0.00 0.00 0.00 85 1013.2